CES6681 ZBAD-ZUCK

Flight info

Callsign CES6681
Flight time N/A
Altitude 32100
Route PEGSO B215 GODON W43 SAVPA W276 AVDIG W666 VINEX
Aircraft MD82/M-SDFGIRWY/C

Departure

Time 2026-04-24 07:02
Airport Beijing Daxing International Airport (ZBAD)

Arrival

Time N/A
Airport Chongqing Jiangbei International Airport (ZUCK)
Time Latitude Longitude Altitude Speed Heading
2026-04-24 06:36 39.51530 116.40130 86 ft 0 kts 83°
2026-04-24 06:53 39.51529 116.40122 89 ft 2 kts 83°
2026-04-24 06:53 39.51527 116.40101 86 ft 2 kts 85°
2026-04-24 06:53 39.51526 116.40080 86 ft 2 kts 87°
2026-04-24 06:54 39.51526 116.40058 86 ft 2 kts 91°
2026-04-24 06:54 39.51527 116.40037 86 ft 2 kts 95°
2026-04-24 06:54 39.51525 116.40016 91 ft 2 kts 50°
2026-04-24 06:54 39.51511 116.40005 91 ft 2 kts 14°
2026-04-24 06:55 39.51495 116.40002 91 ft 2 kts
2026-04-24 06:55 39.51483 116.40002 90 ft 1 kts 355°
2026-04-24 06:55 39.51482 116.40002 89 ft 0 kts 355°
2026-04-24 06:56 39.51483 116.40002 89 ft 0 kts 355°
2026-04-24 06:56 39.51487 116.40002 90 ft 1 kts 354°
2026-04-24 06:56 39.51495 116.40000 91 ft 2 kts 352°
2026-04-24 06:57 39.51507 116.39998 88 ft 2 kts 352°
2026-04-24 06:57 39.51525 116.39995 90 ft 3 kts 352°
2026-04-24 06:57 39.51572 116.39987 89 ft 10 kts 352°
2026-04-24 06:57 39.51655 116.39972 89 ft 7 kts 352°
2026-04-24 06:58 39.51721 116.39962 87 ft 12 kts 355°
2026-04-24 06:58 39.51784 116.39949 90 ft 8 kts 333°
2026-04-24 06:58 39.51805 116.39871 89 ft 11 kts 263°
2026-04-24 06:58 39.51801 116.39832 92 ft 2 kts 263°
2026-04-24 06:59 39.51798 116.39802 94 ft 5 kts 263°
2026-04-24 06:59 39.51794 116.39758 93 ft 5 kts 263°
2026-04-24 06:59 39.51789 116.39719 95 ft 3 kts 256°
2026-04-24 06:59 39.51781 116.39691 99 ft 4 kts 249°
2026-04-24 07:00 39.51764 116.39640 100 ft 4 kts 232°
2026-04-24 07:00 39.51731 116.39627 99 ft 8 kts 181°
2026-04-24 07:00 39.51714 116.39628 99 ft 0 kts 173°
2026-04-24 07:00 39.51711 116.39629 98 ft 1 kts 173°
2026-04-24 07:01 39.51704 116.39630 98 ft 1 kts 173°
2026-04-24 07:01 39.51690 116.39632 101 ft 7 kts 173°
2026-04-24 07:01 39.51478 116.39666 99 ft 56 kts 173°
2026-04-24 07:01 39.50892 116.39757 97 ft 114 kts 173°
2026-04-24 07:02 39.49926 116.39911 98 ft 164 kts 173°
2026-04-24 07:02 39.48656 116.40051 312 ft 193 kts 175°
2026-04-24 07:02 39.47370 116.40332 1261 ft 176 kts 169°
2026-04-24 07:02 39.46226 116.40710 2127 ft 178 kts 171°
2026-04-24 07:03 39.44993 116.40942 2748 ft 176 kts 177°
2026-04-24 07:03 39.43759 116.41079 3231 ft 179 kts 179°
2026-04-24 07:03 39.42486 116.41188 3619 ft 189 kts 179°
2026-04-24 07:03 39.41109 116.41291 3848 ft 208 kts 178°
2026-04-24 07:04 39.39583 116.41444 4037 ft 232 kts 176°
2026-04-24 07:04 39.37915 116.41661 4323 ft 250 kts 176°
2026-04-24 07:04 39.36135 116.41598 4637 ft 263 kts 195°
2026-04-24 07:04 39.34522 116.40533 5134 ft 264 kts 225°
2026-04-24 07:05 39.33309 116.38740 5727 ft 267 kts 232°
2026-04-24 07:05 39.32186 116.36817 6362 ft 269 kts 234°
2026-04-24 07:05 39.31122 116.34814 6943 ft 272 kts 238°
2026-04-24 07:05 39.30120 116.32734 7448 ft 276 kts 240°
2026-04-24 07:06 39.29141 116.30569 7675 ft 281 kts 241°
2026-04-24 07:06 39.28191 116.28392 7788 ft 276 kts 242°
2026-04-24 07:06 39.27262 116.26217 7831 ft 277 kts 242°
2026-04-24 07:06 39.26339 116.24040 7872 ft 276 kts 242°
2026-04-24 07:07 39.25415 116.21855 7882 ft 278 kts 242°
2026-04-24 07:07 39.24489 116.19670 7876 ft 276 kts 242°
2026-04-24 07:07 39.22653 116.15362 7873 ft 274 kts 241°
2026-04-24 07:08 39.21736 116.13223 7873 ft 274 kts 242°
2026-04-24 07:08 39.20817 116.11089 7876 ft 271 kts 242°
2026-04-24 07:08 39.19891 116.08941 7921 ft 279 kts 241°
2026-04-24 07:08 39.18939 116.06740 8490 ft 280 kts 242°
2026-04-24 07:09 39.17993 116.04557 9182 ft 279 kts 242°
2026-04-24 07:09 39.17044 116.02365 9784 ft 282 kts 242°
2026-04-24 07:09 39.16075 116.00127 10114 ft 293 kts 242°
2026-04-24 07:09 39.15055 115.97768 10284 ft 310 kts 242°
2026-04-24 07:10 39.13976 115.95279 10471 ft 326 kts 242°
2026-04-24 07:10 39.12843 115.92671 10691 ft 340 kts 242°
2026-04-24 07:10 39.11677 115.89986 11106 ft 346 kts 242°
2026-04-24 07:10 39.10496 115.87279 11718 ft 347 kts 242°
2026-04-24 07:11 39.09311 115.84559 12311 ft 349 kts 242°
2026-04-24 07:11 39.08123 115.81830 12858 ft 351 kts 242°
2026-04-24 07:11 39.06922 115.79073 13402 ft 354 kts 242°
2026-04-24 07:11 39.05712 115.76296 13931 ft 357 kts 242°
2026-04-24 07:12 39.04494 115.73504 14430 ft 360 kts 242°
2026-04-24 07:12 39.03264 115.70682 14912 ft 363 kts 242°
2026-04-24 07:12 39.02027 115.67845 15406 ft 365 kts 242°
2026-04-24 07:12 39.00796 115.65022 15897 ft 368 kts 242°
2026-04-24 07:13 38.99522 115.62101 16403 ft 371 kts 242°
2026-04-24 07:13 38.98270 115.59229 16897 ft 374 kts 242°
2026-04-24 07:13 38.96992 115.56307 17406 ft 377 kts 241°
2026-04-24 07:13 38.95701 115.53356 17890 ft 380 kts 242°
2026-04-24 07:14 38.94410 115.50387 18346 ft 383 kts 243°
2026-04-24 07:14 38.93215 115.47318 18769 ft 385 kts 246°
2026-04-24 07:14 38.92114 115.44181 19218 ft 387 kts 247°
2026-04-24 07:14 38.91038 115.41006 19652 ft 389 kts 248°
2026-04-24 07:15 38.89957 115.37807 20085 ft 392 kts 248°
2026-04-24 07:15 38.88861 115.34590 20540 ft 394 kts 247°
2026-04-24 07:15 38.87750 115.31363 20956 ft 397 kts 247°
2026-04-24 07:15 38.86619 115.28115 21409 ft 399 kts 247°
2026-04-24 07:16 38.85472 115.24855 21829 ft 402 kts 246°
2026-04-24 07:16 38.84315 115.21582 22243 ft 404 kts 247°
2026-04-24 07:16 38.83147 115.18279 22649 ft 407 kts 246°
2026-04-24 07:16 38.81974 115.14962 23048 ft 410 kts 247°
2026-04-24 07:17 38.80795 115.11626 23448 ft 413 kts 247°
2026-04-24 07:17 38.79607 115.08263 23799 ft 415 kts 247°
2026-04-24 07:17 38.78417 115.04894 24186 ft 416 kts 247°
2026-04-24 07:17 38.77223 115.01510 24550 ft 417 kts 247°
2026-04-24 07:18 38.76025 114.98122 24908 ft 419 kts 246°
2026-04-24 07:18 38.74808 114.94714 25262 ft 421 kts 246°
2026-04-24 07:18 38.73585 114.91302 25625 ft 422 kts 246°
2026-04-24 07:18 38.72358 114.87881 26012 ft 424 kts 246°
2026-04-24 07:19 38.71128 114.84446 26373 ft 425 kts 246°
2026-04-24 07:19 38.69896 114.81001 26716 ft 427 kts 246°
2026-04-24 07:19 38.68659 114.77538 27054 ft 428 kts 246°
2026-04-24 07:19 38.67419 114.74063 27404 ft 430 kts 247°
2026-04-24 07:20 38.66176 114.70578 27758 ft 432 kts 247°
2026-04-24 07:20 38.64928 114.67083 28159 ft 432 kts 247°
2026-04-24 07:20 38.63684 114.63602 28701 ft 428 kts 247°
2026-04-24 07:20 38.62867 114.61317 29101 ft 426 kts 247°
2026-04-24 07:21 38.61634 114.57895 29650 ft 422 kts 246°
2026-04-24 07:21 38.60400 114.54503 30115 ft 419 kts 246°
2026-04-24 07:21 38.59168 114.51127 30486 ft 418 kts 246°
2026-04-24 07:21 38.57546 114.46675 30934 ft 416 kts 247°
2026-04-24 07:22 38.56726 114.44416 31172 ft 415 kts 247°
2026-04-24 07:22 38.55122 114.39993 31625 ft 413 kts 247°
2026-04-24 07:22 38.53908 114.36650 31795 ft 416 kts 247°
2026-04-24 07:22 38.53102 114.34430 31858 ft 416 kts 247°
2026-04-24 07:23 38.50670 114.27744 31932 ft 414 kts 247°
2026-04-24 07:23 38.48245 114.21080 31950 ft 414 kts 246°
2026-04-24 07:24 38.45817 114.14415 31962 ft 415 kts 246°
2026-04-24 07:24 38.43379 114.07734 31968 ft 416 kts 246°
2026-04-24 07:25 38.40928 114.01044 31970 ft 417 kts 246°
2026-04-24 07:25 38.38457 113.94346 31970 ft 417 kts 246°
2026-04-24 07:26 38.35992 113.87648 31977 ft 418 kts 246°